TIANLIAN 2-01

Last updated on Thu Jul 03 2025 00:02:48 GMT+0000 (Coordinated Universal Time)

1 44076U 19017A 25183.60641156 -.00000100 00000+0 00000+0 0 9997 2 44076 0.2542 92.5143 0001288 12.6382 111.0932 1.00271880 23145
UTC large
Height (km)
Speed (km/s)
/
Latitude / Longitude
Inclination (degrees)
Orbital Period (minutes)
Azimuth
Elevation
Range (km)
Doppler Factor

Next 0 passes for location: London (51.5072 / 0.1276)

Sorry there are no passes over London.